Location: *
(32.3758°S, 63.1185°E)
Time: 18:49:25
(UTC+00:00)

Lacrosse 5 - Pass Details

Date: 02 June 2023
Orbit: 714 x 724 km, 57.0° (Epoch: 09 March)

Event Time Altitude Azimuth Distance (km) Brightness Sun altitude
Rises 13:51:39 0° 260° (W) 3,146 6.3 -12.9°
Reaches altitude 10° 13:56:52 10° 215° (SW) 2,236 4.6 -13.9°
Maximum altitude 13:57:22 10° 210° (SSW) 2,228 4.6 -14.0°
Drops below altitude 10° 13:57:52 10° 204° (SSW) 2,238 4.5 -14.1°
Enters shadow 14:02:06 - 166° (SSE) 2,901 4.7 -15.0°
